Torna al catalogo

STARLINK-35875

AttivoComunicazioniVLEO
NORAD 67111·PAYLOAD·🇺🇸 United States

Lanciato Dec 15, 2025 da Cape Canaveral Space Force Station

Loading…

Prossimi Passaggi (prossime 24 ore)

TLE

AggiornatoSource: CelesTrak SupGP

Epoca: Sep 14, 2026, 23:25 UTC

1 67111C 25299K   26257.97618056 -.00032310  00000+0 -11704-2 0  2579
2 67111  42.9999 179.8403 0001350 268.1304 213.6443 15.27592414    19

Traccia STARLINK-35875 in tempo reale con AllMySat

Download on the App Store